ORBCOMM FM113 (41185 NORAD) Tracking and Keplerian Element Data

This shows tracking and keplerian element data for the satellite.

Feedback or suggestion? Click here.




ElementValue
Catalog41185
NameORBCOMM FM113
Epoch Orbit45102
Epoch Day159.71415514
Epoch Year2024
RAAN162.2745
Inclination46.999
Eccentricity2.62E-05
Argument of Perigee172.2995
Mean Anonmoly187.7894
Mean Motion14.56626472
Decay Rate1.343E-05
L11 41185U 15081G 24159.71415514 .00001343 00000+0 33537-3 0 9997
L22 41185 46.9990 162.2745 0000262 172.2995 187.7894 14.56626472451029



Live tracking and technical data element details for ORBCOMM FM113 (NORAD 41185). ORBCOMM FM113 can be tracked NOW for your location showing map with azimuth and elevation plus other details from your city location.







IsCatalogInMostPopularTable: catalog: 41185, numindb: 675
Update: records affected: 1



GetName: 41185 ORBCOMM FM113

Hit Count: updated at: Fri, 14 Jun 2024 19:22:00 GMT